SL-16 DEB, 29100

Orbit data source: Space-Track

SL-16 DEB, 29100 is space debris in LEO originally from a launch on Fri, 26 Mar 1993 UTC launched from the Tyuratam Missile And Space Complex (TTMTR). Debris objects in space refer to the collection of defunct objects orbiting the Earth. Examples of debris include non-operational satellites, rocket bodies, and fragments generated from explosions, collisions, or faulty payload assembly.

Loading next visibility...
Identifier
29100, 1993-016AP
Orbit
LEO
Last TLE update
4 days ago
Origin
Manufacturer
Unknown
Mission
Spacecraft
Bus & Motor
Unknown
Mass
Unknown
Launch date (UTC)
1993-03-26 (32 years ago)
Launch vehicle
Unknown
Launch site
Tyuratam Missile And Space Complex (TTMTR)
Object type
Payload
Rocket body
Debris
Shape & HBR
Unknown
Radar Cross Section
Small (<0.1 m²)

Expand to show TLE details & history

TLE from 4 days ago
0 SL-16 DEB
1 29100U 93016AP  25178.79152049  .00000582  00000-0  33881-3 0  9992
2 29100  70.7301 103.6649 0073653 236.2501 123.1586 14.11592350181393
Epoch: 2025-06-27T18:59Z
TLE epoch observation values (Epoch: 2025-06-27T18:59:47.37Z)
Latitude
-0.00004°
Longitude
-97.4218°
Altitude
885.718 km
Speed
7.395 km/s
True Right ascension
06h 54m 39s
True Declination
0° 00' 00"
Sunlit
Object was in daylight at epoch
Visualization orbit readout
Latitude
22.44258°
Longitude
66.75623°
Altitude
841.815 km
Speed
7.441 km/s
Apparent Right ascension
14h 43m 22s
Apparent Declination
-17° 44' 49"
Sunlit
Object is in full shadow
Visualization observer readout
Local Sidereal Time
20:24:42
Azimuth
253.372° W
Elevation
-7.827°
Doppler factor
1
Orbital elements
Apogee altitude
905.134 km
Perigee altitude
798.631 km
Semi-major axis
7,230.02 km
Eccentricity
0.00737
Inclination
70.7301°
RAAN
103.6649°
Arg. of periapsis
236.2501°
True anomaly
Unknown
Mean anomaly
123.1586°
Eccentric anomaly
Unknown
Mean motion
3.53048 °/min
Orbital period
101.97 mins
BSTAR
0.00033881
Loading maneuver chart data...
Loading SW <> Apogee altitude chart data...
Loading historical data...
Loading historical data...
Loading historical data...
Loading historical data...
Loading historical data...
Loading historical data...
Loading historical data...

SL-16 DEB Visibility forecast

Observer location: undefined°, undefined°

Span
Click to sort rows by Start time (UTC) header in descending order
Start Az.
Max El. time (UTC)
Max El. Az.
Max El.
End time (UTC)
End Az.
7 mins2025-07-01 18:21:32.418Z138.628° SSE2025-07-01 18:25:32.418Z93.988° ESE17.741°2025-07-01 18:28:32.418Z61.519° ENE
10 mins2025-07-01 20:04:32.418Z218.433° SW2025-07-01 20:08:32.418Z276.535° WNW41.416°2025-07-01 20:14:32.418Z16.917° NNE
11 mins2025-07-02 04:59:32.418Z343.569° N2025-07-02 05:05:32.418Z82.707° E40.403°2025-07-02 05:10:32.418Z143.069° SSE
6 mins2025-07-02 06:46:32.418Z289.821° WNW2025-07-02 06:48:32.418Z265.711° W17.297°2025-07-02 06:52:32.418Z219.756° SW
|